Regional Weather Roundup
Issued by NWS Grand Forks, ND

Home | Current Version | Previous Version | Text Only | Print | Product List | Glossary Off
Versions: 1 2 3 4 5 6 7 8 9 10 11 12 13 14 15 16 17 18 19 20 21 22 23 24 25 26 27 28 29 30 31 32 33 34 35 36 37 38 39 40 41 42 43 44 45 46 47 48 49 50

000
ASUS43 KFGF 280610
RWRFGF
PRAIRIE TO PINES  WEATHER ROUNDUP
NATIONAL WEATHER SERVICE EASTERN NORTH DAKOTA/GRAND FORKS ND
100 AM CDT SAT MAY 28 2016

 **SATELLITE DATA USED TO AUGMENT SKY COVER AT AUTOMATED STATIONS**
 *****  WEATHER ACROSS EASTERN NORTH DAKOTA  *****

CITY           SKY/WX    TMP DP  RH WIND       PRES   REMARKS
GRAND FORKS    CLOUDY    63  58  83 SE12      29.80R
6HR MIN TEMP:  61; 6HR MAX TEMP:  74;

GRAND FRKS AFB CLOUDY    62  61  96 N9        29.80R
GRAND FRKS NWS   N/A     61 N/A N/A SE3         N/A
DEVILS LAKE    CLOUDY    58  55  90 NE14      29.84S
6HR MIN TEMP:  58; 6HR MAX TEMP:  70;

FARGO          MOCLDY    62  57  83 SE7       29.80R
WAHPETON ARPT  CLOUDY    61  54  77 SE5       29.80S
$$

 ***** WEATHER ACROSS CENTRAL AND WESTERN NORTH DAKOTA  *****

CITY           SKY/WX    TMP DP  RH WIND       PRES   REMARKS
BISMARCK       CLOUDY    55  51  86 CALM      29.84R
6HR MIN TEMP:  54; 6HR MAX TEMP:  69;

MINOT          CLOUDY    58  54  86 N9        29.87S
6HR MIN TEMP:  58; 6HR MAX TEMP:  72; 6HR PCP: TRACE;

JAMESTOWN      CLOUDY    61  56  83 N7        29.80R
6HR MIN TEMP:  59; 6HR MAX TEMP:  70;

MINOT AFB      CLOUDY    56  53  89 NE9       29.87S
GARRISON         N/A     57  55  93 E9        29.85R
WILLISTON      CLOUDY    56  53  90 N7        29.86S
6HR MIN TEMP:  56; 6HR MAX TEMP:  66; 6HR PCP: TRACE;

DICKINSON      CLEAR     50  45  83 E7        29.84R
6HR MIN TEMP:  49; 6HR MAX TEMP:  65;

HETTINGER      CLEAR     45  41  86 CALM      29.87R
6HR MIN TEMP:  41; 6HR MAX TEMP:  67;

$$

 *****  OTHER AIRPORT OBSERVATIONS IN OUR AREA  *****

CITY           SKY/WX    TMP DP  RH WIND       PRES   REMARKS
WALHALLA       FAIR      57  57 100 N13       29.85S
GRAFTON AIRPOR FAIR      59  59 100 N8G15     29.83R
VALLEY CITY AR FAIR      59  59 100 E5        29.83R
CANDO          NOT AVBL
CAVALIER APRT  CLOUDY    59  57  94 N12       29.83S
GWINNER        CLOUDY    61  59  94 E6        29.80F
ROLLA          CLOUDY    52  52 100 NE13      29.89F
 ***** THE ABOVE OBSERVATIONS ARE NON NWS ARE NOT QUALITY
       CONTROLLED AND MAY MIS-REPORT RAIN FOR SNOW...
$$

  *****  WEATHER ACROSS NORTHERN MINNESOTA  *****

CITY           SKY/WX    TMP DP  RH WIND       PRES   REMARKS
FLAG ISLAND    CLEAR     61  55  82 E6        29.86S
WARROAD        CLEAR     57  54  88 E7        29.86F
ROSEAU         CLEAR     61  55  82 E8        29.85S
HALLOCK        CLOUDY    61  57  88 N5        29.82R
THF RVR FALLS  CLOUDY    59  54  82 E10       29.83F
6HR MIN TEMP:  59; 6HR MAX TEMP:  66;

BAUDETTE       CLOUDY    58  53  84 CALM      29.86S
6HR MIN TEMP:  55; 6HR MAX TEMP:  68;

WASKISH        CLOUDY    59  55  88 CALM      29.85F
CROOKSTON      CLOUDY    61  57  88 E5        29.81S
STEPHEN NDAWN    N/A     63  59  88 E5          N/A
GREENBUSH NDAW   N/A     57  57 100 NE3         N/A
$$
  *****  WEATHER ACROSS CENTRAL AND WEST MINNESOTA  *****

CITY           SKY/WX    TMP DP  RH WIND       PRES   REMARKS
FOSSTON        CLOUDY    57  55  94 E5        29.83F
BEMIDJI        CLOUDY    54  53  95 E6        29.84S
PARK RAPIDS    CLOUDY    59  54  83 NE5       29.82S
6HR MIN TEMP:  56; 6HR MAX TEMP:  65;

ELBOW LAKE     FAIR      58  56  94 E5        29.81R
6HR MIN TEMP:  58; 6HR MAX TEMP:  66;

WADENA         CLOUDY    54  54 100 NE6       29.80F
DETROIT LAKES  PTCLDY    59  54  82 E3        29.82F
MOORHEAD       CLOUDY    63  57  82 SE3       29.81R
FERGUS FALLS   MOCLDY    59  55  88 CALM      29.77F
MORRIS MN      CLOUDY    61  57  88 SE3       29.79R
STAPLES        CLOUDY    55  55 100 NE3       29.81F
$$
  *****  WEATHER ELSEWHERE ACROSS MINNESOTA  *****

CITY           SKY/WX    TMP DP  RH WIND       PRES   REMARKS
DULUTH         DRIZZLE   54  53  97 E13       29.79F FOG
6HR MIN TEMP:  51; 6HR MAX TEMP:  57; 6HR PCP:  0.04;

INTRNTL FALLS  CLOUDY    61  54  77 NE3       29.85S
6HR MIN TEMP:  61; 6HR MAX TEMP:  68;

ELY            LGT RAIN  55  54  94 NE5       29.83F
CLOQUET        CLOUDY    54  52  94 E10G16    29.79S FOG
WHEATON        MOCLDY    61  57  88 SE3       29.81S
BRAINERD       CLOUDY    56  55  97 NE6       29.81R
6HR MIN TEMP:  56; 6HR MAX TEMP:  61; 6HR PCP: TRACE;

HIBBING        LGT RAIN  55  52  89 NE6       29.82S FOG
6HR MIN TEMP:  55; 6HR MAX TEMP:  60; 6HR PCP:  0.05;

ALEXANDRIA     CLOUDY    59  56  89 E3        29.80F
6HR MIN TEMP:  58; 6HR MAX TEMP:  62;

SAINT CLOUD    CLOUDY    57  56  96 CALM      29.79S FOG
6HR MIN TEMP:  57; 6HR MAX TEMP:  61;

MINNEAPOLIS    CLOUDY    63  60  90 NW7       29.76F
6HR MIN TEMP:  63; 6HR MAX TEMP:  67;

$$

  *****  WEATHER ACROSS SOUTH DAKOTA  *****

CITY           SKY/WX    TMP DP  RH WIND       PRES   REMARKS
SIOUX FALLS    CLOUDY    63  57  81 N7        29.74S
6HR MIN TEMP:  60; 6HR MAX TEMP:  73;

BROOKINGS      MOCLDY    60  56  86 NE5       29.76F
WATERTOWN      CLEAR     54  52  93 N7        29.78F
6HR MIN TEMP:  54; 6HR MAX TEMP:  69;

HURON          CLOUDY    60  58  92 N3        29.77S
6HR MIN TEMP:  58; 6HR MAX TEMP:  69;

SISSETON         N/A     61  57  87 CALM      29.78S
ABERDEEN       LGT RAIN  60  58  92 N6        29.80R
6HR MIN TEMP:  60; 6HR MAX TEMP:  66; 6HR PCP:  0.01;

MITCHELL       MOCLDY    62  60  93 N8        29.76S
PIERRE         CLOUDY    59  53  80 N3        29.80R
6HR MIN TEMP:  57; 6HR MAX TEMP:  69; 6HR PCP: TRACE;

MOBRIDGE       MOCLDY    58  53  84 N3        29.80R
RAPID CITY     CLEAR     46  43  89 NW3       29.86S
6HR MIN TEMP:  45; 6HR MAX TEMP:  61;

$$

  *****  SOME WEATHER IN NEARBY STATES *****

CITY           SKY/WX    TMP DP  RH WIND       PRES   REMARKS
GLASGOW MT     CLOUDY    56  50  80 E9        29.83S
6HR MIN TEMP:  56; 6HR MAX TEMP:  70;

GREAT FALLS MT CLOUDY    51  42  71 S3        29.94R
6HR MIN TEMP:  50; 6HR MAX TEMP:  60; 6HR PCP: TRACE;

CHEYENNE WY    CLEAR     44  38  79 W8        29.95F
6HR MIN TEMP:  43; 6HR MAX TEMP:  54;

SCOTTSBLUFF NE CLEAR     47  43  86 N6        29.90F
6HR MIN TEMP:  46; 6HR MAX TEMP:  60;

OMAHA NE       CLOUDY    63  59  87 N3        29.71F
6HR MIN TEMP:  63; 6HR MAX TEMP:  77; 6HR PCP:  0.08;

DES MOINES IA  LGT RAIN  66  62  87 S3        29.75F
6HR MIN TEMP:  66; 6HR MAX TEMP:  75; 6HR PCP:  0.12;

DAVENPORT IA   LGT RAIN  69  67  93 S15       29.75F
6HR MIN TEMP:  69; 6HR MAX TEMP:  77; 6HR PCP:  0.08;

CHICAGO IL     CLOUDY    69  65  86 S10       29.86F
6HR MIN TEMP:  68; 6HR MAX TEMP:  78; 6HR PCP:  0.02;

EAU CLAIRE WI  CLOUDY    63  63 100 CALM      29.74S FOG
6HR MIN TEMP:  63; 6HR MAX TEMP:  69;

LA CROSSE WI   CLOUDY    67  66  97 E3        29.73F
6HR MIN TEMP:  67; 6HR MAX TEMP:  73; 6HR PCP: TRACE;

$$

  *****  SOME NATIONAL WEATHER *****

CITY           SKY/WX    TMP DP  RH WIND       PRES   REMARKS
LA GUARDIA NY  PTCLDY    75  66  73 SW10G18   30.07S
6HR MIN TEMP:  74; 6HR MAX TEMP:  77;

RALEIGH NC     PTCLDY    68  58  70 SE3       30.15F
6HR MIN TEMP:  68; 6HR MAX TEMP:  81;

ATLANTA GA     PTCLDY    72  59  63 S9        30.09S
6HR MIN TEMP:  72; 6HR MAX TEMP:  81;

NEW ORLEANS LA PTCLDY    76  70  82 SE7       29.97F
6HR MIN TEMP:  76; 6HR MAX TEMP:  81; 6HR PCP: TRACE;

OKLAHOMA CITY  CLEAR     64  61  90 S9        29.78R
6HR MIN TEMP:  63; 6HR MAX TEMP:  70; 6HR PCP: TRACE;

ALBUQUERQUE NM CLOUDY    65  23  20 NW7       29.98S
6HR MIN TEMP:  65; 6HR MAX TEMP:  73; 6HR PCP: TRACE;

SALT LAKE CITY CLOUDY    59  45  59 CALM      29.95F
6HR MIN TEMP:  59; 6HR MAX TEMP:  73; 6HR PCP:  0.01;

LOS ANGELES CA MOCLDY    60  55  83 VRB5      29.89F
6HR MIN TEMP:  59; 6HR MC1F1C2F2C3F3C4F4C5F5C6F6C7F7C8F8C9F9CaFaCbFbCcFcCd!


USA.gov is the U.S. government's official web portal to all federal, state and local government web resources and services.